Location: Buckeye Ditch
(40.9104°N, 122.9517°W)
Time: 13:09:12
(UTC+00:00)

Tiros 1 despin weight - Pass Details

Date: 19 May 2025
Orbit: 563 x 601 km, 48.2° (Epoch: 22 June)

Event Time Altitude Azimuth Distance (km) Brightness Sun altitude
Rises 14:45:25 0° 295° (WNW) 2,841 ? 19.7°
Reaches altitude 10° 14:47:51 10° 304° (NW) 1,941 ? 20.2°
Maximum altitude 14:51:59 37° 12° (NNE) 948 ? 20.9°
Drops below altitude 10° 14:56:08 10° 80° (E) 1,941 ? 21.7°
Sets 14:58:34 0° 89° (E) 2,841 ? 22.2°
